Theta_e
319 318 321 320 323 324 327 336 333 329 329 320 318 323 319 320 325 322 320 320 319 319 318 319 322 321 322 326 327 329 327 326 326 321 320 328 335 335 336 336 338 342 342 340 341 344 344 344 343 343 343 342 341 339 339 338 337 337 337 338 337 338 338 337 336 335 333 334 334 336 337 337 336 335 334 334 333 333 334 335 334 334 332 330 326 324 320 314 309 308 311 311 312 313 314 313 313
321 320 323 322 324 324 330 341 336 329 329 317 316 322 317 323 325 320 320 320 320 319 318 320 323 323 323 327 327 333 331 330 330 325 328 331 332 335 340 341 341 342 342 341 342 344 344 344 343 343 343 342 341 339 339 339 338 338 338 338 338 338 338 337 336 335 333 331 331 331 333 334 335 334 334 334 333 332 333 334 333 334 332 328 326 325 319 312 309 309 310 308 307 308 312 316 317
322 322 323 323 325 327 338 343 332 329 326 318 316 319 320 323 323 321 320 319 320 319 318 318 320 319 321 328 327 331 331 333 335 331 332 330 329 334 338 344 344 342 342 341 342 344 343 343 343 343 342 342 341 340 339 339 339 338 338 338 338 338 339 338 336 335 330 327 330 330 329 330 333 334 333 333 332 332 332 332 333 331 327 327 327 325 318 311 309 311 308 303 303 305 310 315 317
320 324 323 326 334 336 347 341 334 332 321 320 318 317 323 323 323 322 320 319 319 320 319 318 319 317 320 327 323 326 328 330 334 333 334 331 332 335 336 342 345 343 341 341 342 342 343 343 342 342 342 342 341 340 340 339 339 338 338 338 338 338 339 338 337 334 330 330 333 333 331 329 331 334 333 332 332 332 332 332 331 326 324 327 328 324 317 310 310 311 304 300 301 302 305 309 312
321 324 322 326 337 336 340 332 336 335 320 325 321 317 323 322 325 321 318 318 317 321 320 319 318 317 323 326 324 328 326 326 330 331 333 333 335 337 336 341 344 343 341 341 342 342 342 343 343 342 342 341 341 340 340 339 339 339 338 338 338 338 338 337 336 334 331 333 334 333 333 329 329 331 332 331 331 332 332 332 328 324 326 328 328 323 316 311 311 309 301 299 301 301 302 305 310
323 324 323 324 325 328 335 325 324 325 320 327 321 317 322 320 322 319 317 315 315 318 321 324 320 323 330 327 327 331 328 328 332 331 332 335 337 337 338 341 343 344 342 342 342 342 342 342 342 342 342 342 341 340 340 340 339 339 339 338 338 337 337 337 336 335 332 333 334 334 333 330 329 330 332 331 331 331 331 330 326 326 329 329 327 321 315 312 311 306 299 299 300 301 301 307 317
323 323 331 335 327 328 332 323 319 321 318 322 321 319 320 319 319 318 316 315 315 316 320 326 323 327 328 323 328 330 330 331 333 332 332 336 337 337 339 342 344 343 342 342 342 342 342 342 342 342 342 342 342 341 340 340 339 339 339 339 338 337 337 336 336 336 334 332 334 334 333 332 331 331 332 332 332 332 331 328 327 329 329 328 326 319 316 313 310 305 299 299 300 301 302 312 324
324 323 334 346 338 334 332 323 321 324 319 316 319 320 319 318 318 317 317 316 316 315 317 319 321 326 320 322 332 328 330 333 333 332 333 337 338 336 339 342 343 342 342 341 342 343 342 342 342 343 342 342 342 341 341 341 340 339 339 338 338 337 337 336 336 336 335 333 333 334 334 333 332 332 332 332 332 332 332 330 329 330 329 328 324 318 316 313 309 305 299 299 300 301 305 314 324
323 323 332 340 335 332 328 321 318 320 318 317 318 320 321 318 317 317 318 316 315 316 315 315 319 323 320 325 328 322 326 332 333 333 333 337 338 338 339 341 342 342 342 341 342 343 342 342 342 343 343 343 342 341 341 341 340 340 339 338 337 337 337 336 335 335 335 333 333 334 334 334 333 333 333 333 333 333 332 331 331 330 329 328 325 320 316 313 310 305 300 299 300 301 305 314 321
325 324 330 338 332 325 320 318 319 319 317 319 317 319 320 317 317 316 317 315 315 317 315 316 319 321 322 323 320 316 322 329 332 333 333 336 339 340 341 342 342 342 342 342 343 343 342 342 342 343 342 343 342 342 341 341 340 339 339 338 337 337 337 336 334 334 335 333 332 334 333 334 334 334 334 333 333 333 332 332 332 330 329 328 325 321 317 315 311 307 302 299 300 301 305 312 318
333 333 341 341 329 322 320 319 319 319 317 319 317 317 318 317 318 316 317 316 315 318 315 317 320 319 319 319 318 313 316 326 331 332 332 334 338 340 342 343 342 342 343 343 343 343 342 342 342 342 342 343 342 342 341 341 340 340 339 338 337 336 336 335 334 334 334 332 332 333 333 333 334 333 334 333 333 333 333 333 332 330 329 327 325 321 318 316 313 310 304 300 300 300 303 310 316
331 336 355 340 323 325 326 322 317 319 317 318 318 317 318 319 319 316 318 317 316 319 316 317 318 319 319 318 318 312 313 324 328 330 331 331 336 340 340 342 342 341 341 342 342 341 341 341 341 342 343 343 342 342 341 341 341 340 340 338 337 336 335 334 334 334 333 333 333 333 333 333 333 333 334 333 333 333 333 333 332 330 329 327 325 322 319 318 316 313 309 303 300 300 301 305 311
330 334 353 329 321 330 326 322 320 320 317 319 319 316 318 319 319 317 319 318 317 319 315 314 316 320 320 316 315 311 312 320 325 330 329 327 332 337 338 339 340 340 340 339 338 338 338 339 340 341 342 342 342 342 341 342 341 341 340 338 337 335 335 334 333 333 334 333 333 333 333 333 332 332 333 333 334 333 333 333 332 331 329 328 325 322 321 320 318 316 313 308 303 300 300 301 304
328 336 349 324 321 329 324 321 319 319 319 323 320 315 318 317 317 318 319 319 316 317 314 311 314 320 319 314 316 314 312 316 324 328 327 326 329 334 336 336 337 338 339 338 337 337 338 340 341 341 341 341 341 341 341 341 341 340 340 339 337 336 335 334 332 332 333 334 334 334 333 332 332 331 331 332 333 333 333 332 332 331 329 328 326 323 322 321 320 319 317 314 309 304 300 300 301
324 340 348 326 320 322 322 323 321 322 320 322 319 316 319 316 317 317 319 320 314 314 313 312 313 316 318 317 320 317 312 315 320 324 325 325 328 331 332 333 335 335 337 337 336 337 339 341 341 341 340 341 341 340 340 340 341 340 340 339 338 336 335 334 332 331 332 333 333 333 332 332 331 331 331 332 333 333 333 332 331 330 329 328 326 325 324 323 321 322 320 318 315 311 306 301 300
330 343 339 323 319 317 319 322 323 323 320 321 318 317 318 314 317 316 316 317 315 313 313 315 312 313 318 318 316 313 312 315 318 324 324 323 324 325 326 328 330 331 333 335 335 336 337 338 339 341 340 339 339 338 339 339 340 340 339 339 339 337 336 335 333 331 331 331 332 332 332 332 331 331 331 331 333 333 333 333 331 330 329 328 326 325 325 324 323 324 323 321 318 316 313 309 306
340 344 336 325 317 316 316 320 323 323 322 321 316 317 319 315 316 314 312 316 318 315 312 314 310 311 316 314 312 311 314 315 316 324 323 319 320 319 320 322 323 326 328 330 333 334 335 336 337 338 338 338 337 336 337 338 338 338 339 338 339 338 336 335 333 332 331 330 330 331 330 331 330 331 331 330 332 333 333 332 331 330 329 328 327 326 325 325 325 325 324 323 320 318 317 315 314
346 341 338 326 317 318 317 319 324 323 320 319 316 318 321 317 317 314 314 316 315 314 313 312 311 309 310 311 313 314 315 315 316 323 322 318 317 317 317 318 319 320 322 325 329 331 334 335 336 336 337 336 336 335 335 337 338 337 337 338 338 338 337 336 335 333 333 331 330 330 329 330 330 332 332 331 332 333 333 332 331 331 330 328 327 325 325 325 325 325 325 324 322 320 318 317 316
341 342 334 324 324 321 315 319 320 318 318 319 318 319 320 318 317 315 317 317 314 318 316 312 313 312 310 311 314 315 315 316 317 321 320 316 316 316 316 316 317 317 318 320 322 326 329 332 335 334 335 335 335 336 336 337 338 337 337 337 337 337 337 336 336 335 334 333 332 331 329 330 331 334 334 332 332 333 333 331 331 331 329 328 327 325 324 324 324 324 325 324 322 321 320 318 317
331 340 329 321 327 320 315 318 318 317 318 320 319 317 318 318 316 315 318 318 315 321 320 315 316 313 312 312 312 314 314 315 316 318 316 313 315 315 315 315 316 316 316 317 318 320 322 327 332 333 334 335 336 337 337 337 337 337 336 336 336 337 337 336 336 336 336 335 334 333 331 331 333 334 334 333 333 333 332 331 330 330 329 329 328 326 325 325 324 324 325 324 322 321 320 319 318
324 331 326 320 322 319 317 317 318 318 318 321 320 317 318 316 316 316 318 318 316 321 321 320 320 314 313 312 311 313 313 313 314 314 313 313 314 314 315 315 315 315 315 316 316 317 318 321 327 331 334 335 336 336 336 337 337 336 336 336 336 337 338 337 337 337 337 336 336 334 332 333 334 334 334 334 333 332 331 331 330 329 329 329 328 328 327 326 326 324 325 324 322 321 321 319 319
321 320 321 322 319 318 318 317 320 319 317 321 319 316 317 316 316 317 318 320 321 321 320 320 318 312 312 312 310 311 311 312 312 312 312 312 313 313 314 314 314 315 315 315 315 315 316 317 321 327 332 335 336 336 336 337 337 337 337 337 337 337 337 336 337 337 337 336 336 335 333 334 334 334 334 333 333 332 332 331 330 329 329 329 329 329 328 328 327 324 324 323 322 321 321 320 320
322 318 317 320 319 319 319 318 320 320 320 320 318 316 316 316 317 317 317 319 319 317 316 317 312 309 310 310 310 311 310 309 311 312 312 312 312 312 313 313 313 314 313 313 314 316 317 317 318 322 329 334 336 335 335 336 336 337 338 338 337 337 336 335 336 336 336 335 335 334 334 334 333 333 333 332 333 333 332 331 330 330 330 329 329 329 329 328 327 325 324 323 322 321 321 320 319
326 320 317 318 318 319 320 319 321 322 321 319 318 316 316 319 317 315 317 318 314 310 309 309 308 307 308 309 310 310 309 309 311 312 312 312 312 312 312 313 313 312 312 312 315 317 318 319 318 318 326 333 334 334 335 335 335 336 338 338 337 336 335 335 335 335 335 335 334 334 334 334 333 332 332 332 332 332 332 331 330 330 330 329 329 329 328 327 326 325 324 323 323 322 321 319 318
324 319 318 319 318 319 320 321 322 321 319 316 316 316 318 320 315 315 319 316 311 308 306 305 306 308 309 312 310 307 308 309 310 311 311 311 311 312 312 312 312 311 312 313 315 317 317 319 318 317 325 332 332 333 334 335 335 336 336 336 336 335 335 334 334 334 334 334 334 333 333 333 333 332 332 331 332 332 331 331 330 330 330 329 328 328 327 326 326 325 324 323 323 323 321 319 318
320 319 320 320 318 318 319 320 321 320 319 316 316 318 319 318 314 316 319 314 310 309 309 309 310 311 312 313 309 306 308 308 309 310 310 311 311 312 312 312 312 312 313 313 315 316 318 320 320 319 326 331 331 333 334 334 334 334 334 334 334 333 333 333 333 333 333 334 333 332 332 333 333 332 332 331 331 331 330 330 330 330 329 328 328 327 326 326 326 325 323 323 323 322 321 319 319
319 320 319 319 319 318 318 318 320 319 318 317 317 319 318 315 315 317 317 311 310 311 311 310 312 313 312 312 308 306 307 307 308 309 308 309 310 312 312 312 313 313 313 314 316 317 319 321 323 324 327 329 330 332 333 332 332 333 332 332 332 331 331 332 332 332 332 332 332 332 332 332 332 332 331 330 330 330 329 329 329 329 328 326 326 326 326 326 325 325 324 323 323 322 321 319 319
317 319 319 321 321 319 319 318 318 317 316 318 318 317 317 313 316 320 317 309 309 312 311 310 312 312 310 311 309 305 306 308 308 308 308 309 311 312 312 312 313 314 313 314 317 319 321 323 325 326 327 329 330 331 331 330 330 330 330 330 331 330 330 331 331 331 331 331 331 330 331 331 331 330 330 329 329 329 328 328 327 327 326 325 325 325 325 325 325 325 324 324 323 322 322 320 319
317 318 318 324 327 323 320 318 317 316 316 318 317 316 319 316 316 319 313 308 310 311 311 310 311 311 310 311 310 307 305 306 307 307 308 310 312 313 311 313 313 314 314 315 317 320 323 324 325 326 326 328 329 329 330 330 329 329 328 328 329 329 329 330 329 329 328 328 328 328 329 329 329 329 328 328 328 327 326 326 325 325 324 323 324 324 324 323 323 323 323 323 322 322 322 321 320
318 317 317 324 327 325 321 316 317 316 316 318 316 318 327 325 319 316 309 308 310 311 311 310 310 310 310 310 311 310 305 304 306 307 308 310 313 312 312 313 314 315 314 315 319 321 322 323 325 326 325 327 328 328 328 329 327 327 328 327 327 327 328 328 327 326 325 325 326 327 327 327 327 327 326 326 326 326 325 324 324 323 322 322 323 323 322 322 321 322 321 321 321 321 321 320 319
319 315 322 326 321 330 328 316 317 316 314 316 316 319 326 327 321 314 308 308 311 312 311 309 310 310 310 310 310 311 306 304 306 307 307 310 312 312 312 314 314 315 315 316 319 321 322 322 323 325 325 326 326 326 327 327 326 326 327 326 326 326 326 326 325 324 324 325 325 325 325 326 325 325 325 325 325 324 324 322 321 320 319 320 320 320 320 320 320 319 317 318 318 317 317 316 314
327 316 327 331 319 332 335 316 317 318 314 313 315 320 321 321 320 313 308 308 310 312 311 309 310 309 309 309 309 310 307 304 305 306 306 308 311 313 313 313 314 315 316 317 319 320 321 321 322 324 324 325 325 325 325 325 324 324 325 324 324 324 324 324 323 323 324 324 324 323 324 324 323 323 323 324 323 322 321 320 318 317 317 317 316 316 316 315 315 313 310 311 312 311 311 312 311
338 322 325 333 322 327 329 317 317 317 316 313 314 321 322 321 318 310 308 308 309 312 311 309 309 308 308 308 307 308 307 305 304 304 305 306 309 313 313 313 314 315 316 318 319 319 320 320 320 321 321 323 323 324 323 323 323 323 322 322 321 322 322 322 321 321 322 322 322 321 321 321 321 321 321 321 321 320 318 317 315 314 314 314 313 312 309 305 305 305 302 302 304 304 307 309 309
337 324 321 331 326 323 325 323 318 314 316 315 314 316 318 320 316 311 309 309 309 311 311 309 308 308 307 307 307 307 306 306 304 302 303 304 306 311 313 313 313 315 316 318 319 319 319 318 319 320 320 320 321 322 321 321 321 320 319 319 319 320 319 318 317 318 319 318 318 318 317 318 317 318 318 318 319 318 316 315 313 312 312 312 309 305 301 298 299 299 298 299 301 303 305 308 307
334 328 324 328 325 322 325 324 318 314 315 316 316 315 315 316 315 313 310 308 309 310 310 309 308 307 307 307 307 307 305 306 304 302 303 303 306 310 311 311 312 314 315 316 316 317 318 317 317 319 319 319 318 319 319 318 318 317 316 315 316 316 315 314 314 314 314 314 314 314 315 315 315 315 315 316 316 315 313 312 310 309 309 308 304 300 296 296 296 296 296 299 302 304 305 306 305
335 335 333 331 327 325 325 325 321 316 315 317 317 316 316 315 315 315 312 309 309 309 309 309 309 308 307 307 307 307 306 305 303 302 303 303 306 310 310 310 311 313 314 314 314 314 316 315 314 314 316 317 316 315 316 316 314 313 312 312 312 310 309 310 311 311 311 312 312 312 313 313 313 313 313 314 314 313 311 309 308 307 306 304 300 296 295 295 295 295 295 298 304 306 304 304 303
327 330 329 329 327 326 326 326 321 316 315 320 318 315 316 315 316 315 312 310 309 309 309 309 309 308 307 307 307 307 306 304 302 302 303 303 306 309 310 310 310 310 311 312 313 312 314 315 313 310 312 314 315 314 313 313 314 312 310 310 309 306 306 308 307 307 309 309 310 311 311 311 311 311 311 311 311 310 309 308 307 305 301 298 296 294 294 294 294 294 294 296 301 305 303 301 302
321 322 323 325 326 325 325 323 319 315 316 322 321 317 316 315 315 314 313 313 312 310 310 310 309 308 307 307 307 307 307 305 301 301 301 303 306 308 309 309 309 309 309 310 311 310 311 314 312 309 309 310 312 313 311 310 312 313 312 310 307 304 304 306 306 305 306 306 307 307 307 307 308 307 307 307 307 307 306 305 303 299 296 295 294 293 293 293 293 293 294 293 295 298 298 299 301
320 321 320 323 326 324 324 323 318 314 317 324 325 319 318 317 315 315 315 315 313 310 310 311 310 309 308 308 307 307 308 306 303 301 301 302 305 306 307 308 308 309 309 309 310 308 308 310 309 307 307 308 308 309 310 310 310 312 312 308 306 304 301 302 304 303 303 304 304 304 303 303 303 302 301 301 301 301 301 299 296 294 293 293 293 292 292 292 292 291 293 293 292 292 292 295 298
321 322 320 324 326 323 325 324 319 317 318 321 323 320 317 316 317 318 317 315 314 312 311 310 310 310 309 308 307 307 308 306 304 302 300 300 303 304 305 306 307 308 307 307 308 306 305 306 306 305 305 306 307 307 308 310 310 309 308 305 305 304 300 300 300 299 300 301 300 299 298 297 297 296 295 296 296 295 295 294 293 292 292 292 292 292 291 291 291 290 291 291 292 291 290 290 291
324 324 322 323 324 324 325 324 322 325 326 321 320 322 323 323 321 319 319 317 315 314 313 312 310 310 310 309 308 307 307 305 303 303 301 300 301 303 304 305 307 307 306 307 306 305 305 304 304 304 305 305 305 306 308 310 309 306 303 300 300 300 297 297 298 296 296 297 295 294 293 293 293 292 292 293 293 292 292 292 292 292 291 291 291 291 290 290 289 290 290 290 291 290 289 289 289
325 326 325 322 324 325 324 325 324 329 333 325 319 326 334 334 327 323 323 323 321 318 315 314 311 309 310 310 309 308 307 305 303 303 301 300 301 302 303 304 306 306 306 306 306 305 306 305 303 303 305 305 304 306 309 311 310 307 303 300 297 295 293 293 295 294 293 293 292 291 291 291 292 292 292 292 292 292 292 291 291 291 291 290 290 290 289 289 289 289 289 289 289 290 289 288 288
325 328 326 323 324 324 324 325 325 329 333 324 318 327 333 329 326 326 328 328 327 322 319 316 313 310 309 309 308 308 306 304 303 302 301 300 300 302 302 303 305 306 305 306 305 305 305 305 304 303 304 305 303 305 308 310 309 307 306 303 299 297 293 291 292 293 292 291 291 290 290 291 291 291 291 291 291 291 291 291 291 290 290 290 289 289 289 288 288 288 288 288 288 288 289 288 287
328 327 328 327 322 324 325 323 325 329 329 326 324 327 327 325 325 326 326 326 325 322 321 319 315 311 310 309 308 308 306 304 303 303 302 300 300 301 302 302 305 306 305 305 305 304 304 304 304 303 304 304 303 305 307 307 308 306 304 302 298 297 295 291 290 290 290 290 290 290 290 290 290 291 290 290 290 290 290 290 290 290 289 289 289 289 288 288 288 288 288 288 288 288 288 288 287
328 325 327 330 326 329 330 326 327 327 324 329 331 325 324 328 329 325 323 324 325 323 322 321 318 314 311 309 309 307 306 304 303 303 302 301 301 301 302 302 304 305 305 304 304 304 303 303 302 302 302 303 303 304 305 305 306 305 303 300 295 293 293 290 289 289 289 289 290 289 289 290 289 289 289 289 289 289 290 289 289 289 289 288 288 288 287 287 287 287 287 287 287 287 287 287 287
323 322 327 329 328 331 333 330 329 328 326 329 330 326 325 328 329 326 323 325 328 323 321 320 318 317 313 310 309 307 306 304 303 302 301 301 301 302 302 302 304 304 303 304 304 304 303 302 301 301 301 301 302 303 303 303 303 303 302 299 295 291 290 289 288 289 289 289 289 289 289 289 289 289 288 289 289 289 289 289 288 288 288 288 288 287 287 287 287 287 287 287 287 286 286 286 286
320 326 332 333 331 332 334 332 327 328 327 326 328 328 326 327 332 330 325 328 329 324 324 325 322 321 316 311 308 307 305 304 303 302 301 301 301 301 301 302 303 303 302 303 303 302 303 302 301 301 300 300 301 301 302 302 300 301 300 298 294 290 289 289 288 288 288 289 289 288 288 288 288 288 288 288 288 288 288 288 288 288 287 287 287 287 287 287 286 286 286 286 286 286 286 286 286
323 335 335 332 333 331 332 331 327 328 329 328 328 325 322 326 331 331 327 326 325 323 325 328 328 328 320 311 308 306 305 303 302 302 301 300 300 300 300 301 301 301 300 301 302 301 302 302 301 300 299 300 300 299 300 300 298 297 297 296 294 291 290 289 289 288 288 289 288 288 288 287 287 287 287 288 288 287 288 287 287 287 287 287 287 286 286 286 286 286 286 286 286 285 285 285 285
325 332 330 328 330 329 331 331 328 328 327 323 321 320 322 325 325 326 325 324 325 323 320 322 325 328 323 312 307 306 304 303 302 301 302 300 299 298 299 299 299 299 299 300 301 300 300 301 300 300 299 298 297 297 297 297 296 295 294 294 292 291 290 290 289 289 289 289 289 288 288 287 287 287 287 287 287 287 287 287 287 287 287 287 286 286 286 286 286 286 286 286 285 285 285 285 285
323 326 328 328 328 331 335 332 327 328 327 319 316 320 325 326 325 324 321 320 324 323 320 319 320 323 322 314 308 306 304 303 302 301 301 300 299 298 298 299 298 298 299 299 299 300 299 299 299 299 298 296 295 294 295 295 294 293 293 292 292 291 290 290 289 289 289 289 289 288 288 288 288 287 287 287 287 287 287 287 287 287 286 286 286 286 286 285 286 286 286 285 285 285 285 285 285
321 323 325 327 330 335 338 334 331 333 331 320 316 323 330 331 329 325 321 321 324 324 322 319 316 316 316 312 308 306 304 302 302 301 301 300 299 298 298 298 298 298 298 298 298 298 298 298 297 297 295 294 294 293 293 293 293 292 291 291 291 291 290 289 289 289 289 289 289 289 289 288 288 288 287 287 287 287 287 286 286 286 286 286 286 286 286 285 285 285 285 285 285 285 285 285 284
321 323 324 325 330 330 329 330 329 327 328 323 320 325 330 328 324 320 320 322 321 321 320 318 317 314 312 312 309 305 304 302 301 301 301 299 298 298 298 297 298 297 297 297 297 297 297 297 296 295 294 294 294 294 293 292 292 291 291 291 291 290 290 289 289 289 289 289 289 289 289 288 288 288 287 287 287 286 286 286 286 286 286 286 286 285 286 285 285 286 286 285 285 285 284 284 284
321 320 323 324 324 324 326 327 323 321 325 326 323 326 328 325 322 319 320 322 322 322 320 319 318 314 313 313 308 304 303 302 301 301 300 299 297 297 297 297 297 297 296 297 297 297 297 296 295 294 294 295 295 294 294 293 292 291 290 290 290 289 289 289 289 289 289 289 289 289 288 288 288 288 287 287 286 286 286 286 286 286 286 285 285 285 285 285 285 285 285 285 285 284 284 284 284
322 323 324 321 321 327 330 329 327 327 329 327 324 325 327 325 325 323 320 321 322 322 322 319 315 314 315 312 306 304 304 302 301 301 299 297 297 297 297 297 297 297 296 296 297 297 296 296 295 295 295 295 295 295 294 293 292 291 290 290 290 289 289 290 289 289 289 288 288 288 288 288 288 288 287 287 286 286 286 286 286 286 286 285 285 285 285 286 286 285 285 285 285 284 284 283 283
322 326 324 323 328 330 327 327 331 331 331 330 327 325 323 322 325 326 322 323 324 322 320 319 317 317 315 309 306 304 303 302 301 300 299 297 296 296 296 296 296 296 296 296 296 296 296 295 295 295 295 295 295 295 294 294 292 291 290 289 289 289 289 289 289 289 288 288 288 288 288 288 288 287 287 287 286 286 286 286 286 286 286 286 285 286 286 286 286 285 285 285 284 284 283 283 283
318 320 319 322 327 328 326 326 328 330 330 331 330 326 324 323 325 325 323 325 329 324 320 320 320 317 312 308 306 304 302 302 300 300 299 297 295 295 296 296 296 296 296 296 295 295 295 295 294 294 295 295 295 294 294 293 292 291 290 289 289 289 289 289 289 288 288 288 288 288 288 288 288 287 287 287 286 286 286 286 286 286 286 286 286 286 286 286 285 285 284 284 284 284 283 283 283
318 320 320 321 321 322 325 324 325 329 331 332 331 326 325 327 325 324 324 324 325 324 322 322 320 316 312 308 306 304 302 301 300 299 299 296 295 295 295 295 295 295 296 295 295 294 294 295 294 294 294 294 294 293 293 293 291 291 290 289 289 289 289 289 288 288 288 288 288 288 288 288 287 287 287 287 286 286 286 286 286 286 286 285 286 286 286 286 285 285 284 284 283 283 283 283 283
319 320 321 320 320 322 325 325 323 325 326 331 332 326 325 329 324 320 322 322 321 321 321 321 319 316 313 309 306 304 302 301 300 299 299 296 294 294 294 295 295 295 295 294 294 293 293 294 294 294 294 294 293 293 292 292 291 290 290 289 289 289 288 288 288 288 288 288 288 288 288 288 287 287 287 287 287 287 287 286 286 286 285 285 285 286 286 286 285 285 284 283 283 283 283 282 282
Wind_Speed
8 6 3 3 3 1 2 4 2 2 4 3 1 2 0 2 2 3 1 2 3 1 2 4 4 5 6 7 9 7 4 1 2 3 2 4 6 4 4 5 6 11 14 16 16 15 14 13 12 11 11 10 10 11 11 12 13 12 13 12 12 12 12 12 13 13 13 13 13 14 14 14 14 14 14 14 14 14 14 14 15 16 17 17 20 22 22 21 18 15 12 10 8 6 6 6 6
7 5 3 2 3 1 1 3 4 3 5 3 2 2 1 3 4 4 3 2 3 2 3 7 9 10 9 10 7 6 5 3 1 3 2 4 8 7 5 7 9 10 13 16 16 15 14 14 12 11 11 10 10 10 11 11 12 12 12 12 12 12 12 12 12 12 12 12 12 13 13 13 13 13 13 13 13 13 14 14 15 16 17 17 20 22 22 20 18 15 13 11 9 8 9 9 8
8 5 4 1 2 3 1 4 4 2 5 3 2 2 0 3 4 5 5 4 5 4 5 6 7 5 5 7 4 4 1 3 2 0 1 4 6 8 8 10 11 9 11 15 15 15 14 13 12 11 11 10 10 10 10 11 11 11 11 12 12 11 12 12 12 12 12 12 13 13 13 13 13 13 13 12 13 13 13 14 14 15 16 17 20 21 22 21 18 16 13 12 10 10 11 11 11
7 6 6 2 2 4 4 4 3 5 4 3 1 4 2 5 6 6 6 5 5 2 3 3 5 3 5 8 3 3 1 3 2 1 0 2 5 8 8 11 13 11 11 13 15 14 13 13 12 11 11 10 10 10 10 11 11 11 11 11 11 11 11 12 12 11 12 13 13 13 13 12 12 12 12 12 12 12 12 13 13 14 16 18 20 21 21 21 18 16 14 13 12 12 12 12 12
5 4 5 4 3 2 3 3 2 4 3 4 3 4 5 6 7 6 4 3 2 4 4 3 3 3 5 5 1 2 1 3 2 2 1 3 6 7 7 12 15 13 11 13 15 14 13 12 12 11 10 11 10 10 10 10 10 11 11 11 11 10 10 11 11 11 12 12 12 12 11 11 12 12 11 11 11 12 12 12 12 14 17 18 19 21 21 20 19 16 15 15 14 13 12 13 14
5 4 5 6 3 2 3 4 4 3 3 5 4 4 6 6 7 5 2 2 4 4 4 4 3 3 4 2 2 2 3 2 1 2 2 3 5 7 9 14 16 14 12 14 16 14 13 12 12 12 10 10 10 10 10 10 10 10 10 10 10 10 10 10 11 10 10 11 11 11 10 11 11 11 11 11 11 11 10 10 12 15 16 17 19 20 20 20 18 17 16 16 16 15 14 14 15
5 2 4 5 2 3 5 4 4 2 1 5 6 6 7 6 6 5 2 1 4 5 4 4 6 7 3 0 2 3 5 1 1 2 2 3 5 8 11 15 17 15 12 15 16 13 12 12 12 12 11 10 10 10 10 10 10 10 10 10 10 10 10 10 10 10 10 10 10 9 9 9 10 10 10 10 11 11 10 10 13 15 16 17 19 19 20 20 18 17 16 17 17 16 16 15 17
4 2 1 4 3 4 5 4 3 3 2 3 4 6 8 7 6 6 3 2 2 2 4 3 5 6 1 1 2 2 7 5 4 4 4 4 5 10 13 16 18 16 14 15 15 12 13 12 11 12 11 11 11 10 10 10 10 10 10 10 10 10 10 10 10 10 9 9 9 8 8 8 8 9 9 9 10 10 10 11 13 14 16 18 19 19 19 20 19 17 16 17 17 17 17 17 18
4 3 2 4 3 3 3 3 2 2 2 3 3 4 6 6 5 5 3 2 3 3 3 5 3 5 0 4 2 3 5 5 4 5 5 6 8 11 13 15 17 17 16 16 15 13 13 13 11 11 10 11 12 11 10 10 10 10 10 10 11 11 10 10 10 10 10 9 9 8 7 8 8 8 8 9 10 10 10 10 12 13 15 17 18 18 19 20 19 18 16 16 17 17 17 17 16
3 4 2 3 3 4 3 1 1 1 2 3 4 5 5 4 4 4 5 4 3 4 2 1 5 6 4 3 1 2 3 3 4 6 6 7 10 13 14 14 16 18 17 17 15 13 13 13 12 11 10 11 11 11 11 11 11 10 10 11 11 11 11 10 10 10 10 9 9 8 7 8 7 7 8 9 10 10 10 10 10 12 14 16 17 18 18 20 20 19 17 16 16 17 17 16 15
3 4 3 4 4 3 2 3 1 1 2 2 1 3 4 5 5 3 4 5 2 4 1 3 6 5 5 1 3 1 1 3 4 6 6 6 10 13 15 15 16 17 17 16 14 12 12 13 12 12 12 12 12 12 12 12 11 11 11 11 11 11 11 10 10 9 10 9 9 8 7 7 7 7 8 8 9 9 9 9 10 12 13 15 17 17 18 20 21 20 18 16 16 16 16 15 14
3 4 4 5 3 3 4 5 3 2 3 1 1 3 2 4 6 3 4 6 2 6 2 2 5 5 5 1 3 1 2 4 4 4 4 4 9 12 14 15 16 16 16 15 14 12 11 11 12 13 13 13 12 12 12 11 12 12 12 12 12 11 11 10 10 9 9 9 8 8 7 7 7 7 8 8 8 9 9 9 9 11 12 14 16 17 18 19 20 21 20 17 16 15 15 14 14
3 1 5 3 2 4 4 5 3 2 1 3 3 3 2 5 4 6 5 5 3 6 2 3 6 6 4 2 2 2 2 5 6 4 3 3 8 12 13 14 15 15 14 14 13 11 9 10 11 13 14 14 13 13 12 11 11 12 12 12 12 12 11 10 9 9 9 8 8 7 7 7 7 7 8 8 8 9 9 8 9 10 11 13 14 15 17 19 20 20 21 19 17 15 15 14 14
3 3 5 3 2 4 5 4 2 4 2 6 3 2 2 3 3 6 7 6 5 4 1 3 5 5 2 2 1 4 4 7 8 5 3 5 8 11 12 13 14 14 13 13 13 12 10 11 13 12 12 12 12 11 11 11 11 12 13 13 12 12 11 10 9 9 9 9 7 7 6 6 7 7 7 7 8 9 9 8 9 9 10 12 13 14 15 17 18 20 20 20 18 17 15 15 14
3 2 5 4 2 2 4 2 4 5 4 5 3 1 4 2 3 3 5 7 2 1 0 3 3 1 3 5 4 5 6 10 9 7 7 9 10 11 12 13 13 13 13 12 12 13 11 12 14 12 12 11 10 9 8 9 10 11 12 13 14 12 11 10 8 8 9 9 8 7 6 6 6 6 6 7 8 9 9 8 8 9 9 11 12 13 14 15 16 19 20 19 19 17 16 14 13
3 4 5 4 2 2 3 2 4 4 4 5 3 3 6 1 2 3 1 6 4 4 3 2 3 1 3 5 4 6 10 11 11 10 11 13 12 12 12 12 12 12 12 12 12 13 12 11 13 12 12 11 10 10 9 8 8 9 10 11 13 12 11 10 8 7 8 8 8 7 7 6 5 6 6 7 8 9 9 8 8 8 9 10 11 12 13 14 15 17 18 18 18 17 16 15 13
4 4 5 4 2 2 3 3 5 4 5 4 4 2 6 1 1 2 2 6 6 4 4 2 4 3 3 4 5 8 10 12 14 15 15 15 14 13 11 11 11 10 10 11 11 12 12 12 13 11 11 11 11 11 11 10 9 9 9 10 12 12 11 10 9 9 8 8 8 7 7 6 6 6 7 7 8 9 9 8 8 8 8 9 10 11 12 13 14 15 16 17 16 16 16 16 15
5 4 4 2 2 2 3 6 6 4 5 6 5 3 7 4 1 2 4 8 5 4 5 4 5 6 5 7 9 8 10 14 17 18 17 15 13 13 11 9 8 9 9 10 11 12 12 13 14 13 12 12 11 11 12 11 10 9 9 10 12 12 12 11 10 10 9 8 8 8 8 7 7 6 7 8 9 10 9 8 8 7 7 8 9 10 11 12 13 14 14 15 15 16 16 16 16
4 3 4 2 5 2 3 6 5 3 6 6 4 4 6 6 4 3 2 1 2 5 4 4 5 4 5 7 10 10 12 15 18 19 17 14 13 13 11 9 8 7 7 9 11 12 13 14 15 15 14 13 11 10 12 12 11 10 9 9 11 13 13 13 13 12 11 10 9 9 9 9 8 7 7 8 9 11 9 7 7 7 7 8 9 10 10 11 12 12 13 13 13 14 15 15 15
2 4 4 3 6 3 1 3 3 3 6 8 3 3 4 4 3 2 4 4 2 3 3 2 1 4 4 5 9 12 14 15 17 19 17 14 13 12 10 9 8 7 7 8 9 11 12 13 16 17 16 15 13 11 12 13 12 11 11 10 12 14 14 14 14 13 11 10 9 9 8 8 8 8 9 10 11 11 10 8 8 7 7 9 10 10 9 8 8 9 11 11 11 12 14 15 14
2 4 4 5 4 3 1 2 2 2 5 7 4 4 4 3 2 3 7 6 3 6 7 7 8 10 9 6 8 12 14 15 15 17 16 14 12 11 10 8 7 6 6 7 8 9 11 13 16 17 18 17 14 13 14 14 14 13 12 11 13 15 15 15 14 13 12 9 8 8 7 6 7 8 9 11 12 11 9 9 9 8 8 9 10 10 8 6 5 7 9 9 9 11 13 15 14
3 2 3 5 4 3 3 3 1 3 5 5 5 5 4 2 1 5 9 6 5 6 8 8 9 11 11 9 10 11 12 13 13 15 15 13 12 11 9 7 6 5 6 6 7 8 10 12 14 17 19 19 16 15 15 15 15 13 13 13 14 15 15 14 14 13 12 11 10 9 7 6 7 9 9 10 11 10 11 12 10 9 8 8 9 8 7 5 6 7 8 8 8 10 12 14 15
3 2 1 2 3 4 3 2 1 4 6 5 5 3 2 2 1 4 8 6 5 4 4 7 8 12 13 12 11 9 9 10 11 13 13 13 12 10 9 7 6 5 6 6 6 7 8 10 12 16 19 20 17 15 15 15 16 16 16 16 17 18 16 14 14 13 12 11 10 11 9 8 9 10 10 10 10 11 13 13 11 10 8 8 7 6 6 6 8 9 7 7 7 9 11 13 14
5 1 2 1 2 4 4 4 3 5 7 5 3 3 2 5 3 1 4 4 2 1 4 10 12 15 15 11 9 9 9 10 11 11 11 12 11 10 8 6 5 4 4 5 5 6 7 8 10 14 18 20 16 13 13 14 17 18 18 18 18 18 16 14 15 13 13 10 9 11 12 11 11 11 11 11 11 11 13 11 11 11 10 10 7 7 9 9 10 9 8 7 7 7 8 10 12
4 2 2 1 1 2 3 4 4 5 5 3 4 3 5 6 4 1 4 4 2 3 7 10 12 12 11 8 8 9 9 10 12 12 11 10 10 9 8 6 5 4 4 5 5 5 6 6 8 12 18 19 14 13 15 17 19 19 18 19 17 16 14 13 14 14 14 12 11 12 12 13 13 12 13 13 13 13 12 11 11 11 10 11 9 9 11 11 10 10 9 8 6 5 6 8 9
1 3 1 1 2 2 1 2 4 5 3 4 4 3 6 3 1 3 4 7 5 5 7 7 9 8 7 7 8 10 10 11 13 13 13 12 10 10 9 8 7 7 6 5 5 6 6 5 7 13 18 17 15 16 18 20 21 21 19 19 17 17 17 16 14 14 16 16 15 13 12 14 14 15 15 14 14 13 13 12 13 12 11 11 11 12 12 11 11 10 9 8 6 6 7 9 8
3 4 2 1 2 3 2 4 5 3 1 5 5 4 4 4 1 3 3 6 6 7 6 5 7 7 7 6 7 10 11 12 15 15 14 13 12 12 11 10 9 8 7 6 7 7 8 7 9 13 16 16 17 20 21 21 22 22 21 20 19 18 18 17 15 14 15 16 15 14 13 14 14 15 15 15 15 15 16 16 15 15 13 12 11 12 11 10 9 8 8 7 6 7 7 8 8
2 3 2 4 4 5 3 5 5 2 1 5 6 3 4 4 1 5 5 7 6 8 7 5 7 6 6 6 6 8 10 13 16 16 14 14 13 13 12 11 10 9 8 9 9 9 10 10 12 15 16 17 20 21 22 21 22 22 21 21 20 17 17 17 16 15 15 15 15 15 15 15 15 15 16 17 17 18 18 17 16 15 14 12 11 10 9 8 8 8 7 6 6 6 6 7 8
2 3 2 6 7 5 5 4 4 5 2 5 6 2 5 3 5 5 3 8 6 7 7 6 6 5 5 6 5 6 9 13 15 14 14 13 13 12 12 12 10 10 9 10 10 11 12 13 15 17 18 19 20 21 22 21 21 21 20 20 19 18 17 16 16 16 15 15 15 15 16 16 16 16 17 17 17 18 17 16 15 14 13 12 11 10 10 9 9 9 8 6 6 6 6 6 6
1 3 2 4 7 5 6 1 4 6 3 4 5 2 6 7 8 4 3 9 8 7 7 6 6 5 5 6 5 5 8 12 13 14 13 13 14 13 13 13 11 11 11 11 12 13 14 16 17 18 20 20 19 21 21 21 22 22 19 18 18 16 14 13 15 16 15 15 16 16 17 17 17 17 17 17 17 17 17 16 16 15 14 13 13 11 11 11 9 9 8 7 6 6 6 7 6
0 1 2 2 2 4 7 2 6 6 2 3 5 2 7 9 9 5 6 8 10 9 8 7 6 6 6 5 6 5 7 11 13 14 13 13 15 14 13 14 13 12 13 13 13 14 15 18 19 19 20 20 21 21 21 20 22 23 21 19 18 16 14 14 16 17 17 17 17 18 18 18 18 18 18 18 19 19 19 18 17 17 16 15 15 13 11 10 9 9 9 8 8 8 9 11 12
2 1 3 3 1 5 8 2 7 7 1 2 5 2 7 9 8 5 7 7 9 9 8 8 8 8 7 6 6 5 6 9 12 14 14 14 15 15 15 16 15 13 14 15 15 16 16 18 21 23 22 22 22 22 21 23 23 22 22 21 20 18 17 17 18 18 19 19 19 19 19 19 19 19 19 19 20 20 20 20 19 18 18 16 16 14 12 12 11 12 12 10 10 11 13 16 17
3 1 3 2 2 3 6 3 3 4 2 0 2 3 4 5 5 3 7 7 7 7 8 9 9 9 8 6 6 6 6 7 10 14 15 15 15 16 17 17 17 15 14 17 18 18 19 19 20 23 25 25 25 24 23 24 23 22 23 21 21 20 19 20 20 20 20 20 20 21 20 20 20 20 20 20 20 21 20 20 20 19 18 17 17 16 15 16 15 15 16 13 12 14 16 18 20
4 1 2 4 3 2 3 4 3 2 3 3 3 4 7 7 4 3 6 7 7 8 9 10 9 8 7 7 6 6 7 6 8 14 18 17 15 17 19 18 18 16 14 17 19 20 20 21 21 22 24 25 26 26 25 23 23 23 23 22 21 21 21 21 22 21 21 21 21 21 21 20 20 20 20 19 20 21 21 22 22 20 18 18 18 19 19 19 18 17 19 18 16 17 19 21 23
3 3 2 3 3 2 4 4 2 4 3 4 4 5 11 12 8 6 7 7 8 11 10 8 8 8 7 7 7 7 8 8 10 15 19 18 17 18 19 18 18 17 16 17 20 22 22 22 22 23 24 25 25 25 25 24 24 24 24 24 24 23 23 23 22 22 22 22 21 21 20 20 20 20 20 20 21 23 24 23 23 21 18 18 19 21 21 20 20 20 20 20 19 20 22 24 25
6 5 4 3 3 3 5 5 5 7 4 4 7 7 11 13 11 8 7 7 9 11 8 6 7 8 8 8 8 9 9 8 11 17 19 18 18 20 20 18 18 18 18 18 20 22 23 24 24 25 26 26 27 27 27 27 27 26 26 26 25 25 25 25 24 23 23 22 22 21 21 20 20 20 21 21 23 24 25 24 23 20 18 18 20 21 21 20 20 21 21 21 20 22 24 27 26
4 3 3 4 4 5 5 4 6 4 4 6 9 9 11 11 12 10 6 6 8 11 10 9 9 8 9 10 10 11 9 7 12 18 19 18 19 21 20 19 19 19 19 19 21 23 23 24 25 26 27 28 30 30 30 30 29 28 27 27 27 26 26 26 25 25 24 24 23 22 21 21 21 21 21 21 22 23 24 23 22 21 20 20 22 22 21 19 19 19 20 22 22 23 25 25 25
1 2 2 4 4 6 6 4 4 1 3 6 5 7 11 12 12 10 4 7 10 13 13 13 12 11 10 11 12 10 6 6 11 15 18 19 20 21 21 21 20 21 21 21 21 22 23 24 26 27 28 29 29 30 31 29 28 27 26 27 28 28 27 27 27 26 25 25 23 22 22 21 21 21 21 22 23 23 24 24 23 22 21 21 22 22 20 19 19 17 18 21 23 24 22 20 20
3 2 2 4 3 4 6 4 3 0 3 5 4 4 10 12 11 10 7 9 11 12 14 15 14 13 11 12 12 10 8 7 9 12 16 20 21 21 22 22 22 23 23 23 22 23 23 25 27 27 28 28 28 29 29 27 26 26 27 29 30 29 27 27 27 26 26 25 24 23 22 22 22 23 24 24 25 25 25 25 24 23 21 21 22 22 21 20 19 18 17 19 21 24 22 17 13
4 3 2 4 4 2 4 5 3 1 2 3 4 5 8 9 8 10 11 10 8 9 12 13 12 12 13 14 13 12 13 12 11 10 13 18 21 21 23 23 23 23 23 24 24 24 24 25 27 28 28 28 28 28 27 26 27 28 29 30 30 29 28 27 28 27 26 26 26 25 25 26 26 27 27 26 26 26 25 25 24 23 22 21 21 22 22 21 20 19 18 17 18 21 22 19 15
5 6 6 5 5 6 6 4 3 3 4 2 3 6 8 7 9 11 8 4 7 9 9 11 11 11 11 10 11 12 13 13 13 12 12 17 20 21 23 23 23 24 24 25 26 26 26 26 27 28 28 28 28 28 26 26 29 31 32 31 29 30 29 28 29 28 27 28 29 29 29 28 28 28 27 25 25 25 25 24 23 23 22 21 20 21 22 22 20 19 19 18 18 20 22 20 18
5 5 10 10 8 8 5 2 4 4 5 3 2 4 7 5 7 10 5 3 7 7 7 12 13 10 10 10 11 10 10 11 12 13 14 17 19 21 23 24 24 24 25 27 28 27 27 27 26 27 28 27 28 27 27 28 30 32 33 33 32 32 30 28 30 31 31 31 32 31 30 28 27 27 26 25 24 24 24 23 22 22 21 21 20 21 22 21 21 20 19 19 19 18 19 21 20
4 6 9 9 7 5 4 1 2 1 4 4 1 2 7 6 4 8 5 5 10 8 8 12 11 9 10 11 10 10 10 10 10 11 14 17 20 22 23 26 26 26 26 28 28 28 28 27 26 27 27 27 27 28 29 31 32 32 32 33 33 34 32 29 31 33 33 33 33 32 30 28 27 25 25 24 23 23 23 22 21 21 21 21 20 21 21 20 20 20 19 19 20 17 17 21 20
4 5 6 7 7 5 5 5 4 3 3 4 2 2 5 8 6 6 6 8 12 11 11 13 11 10 11 10 9 10 12 12 12 12 13 17 22 25 26 28 28 27 28 29 29 29 28 28 27 27 27 27 27 29 31 32 32 32 33 33 33 34 35 33 33 34 34 34 33 32 30 28 26 25 24 24 23 22 22 21 21 20 21 20 20 20 20 20 19 19 19 19 19 17 17 19 19
6 4 7 6 6 5 3 5 3 1 2 4 5 1 3 8 5 2 1 6 11 12 14 14 13 11 10 10 10 11 12 12 13 13 14 18 24 27 28 29 29 28 29 30 30 29 28 28 28 27 27 28 29 30 32 31 32 33 33 34 34 34 36 36 35 35 34 34 33 32 30 28 27 25 24 23 23 21 21 21 20 20 20 20 19 20 20 19 18 18 18 18 18 18 17 17 18
4 5 7 6 5 5 5 5 3 2 1 6 7 3 4 7 4 2 1 3 9 11 12 12 10 9 9 10 10 10 10 10 11 12 15 20 25 28 28 28 28 28 29 30 29 29 28 28 28 28 28 29 30 32 32 32 32 33 33 36 37 37 38 37 36 35 35 34 33 32 30 29 27 26 24 23 22 21 20 20 19 20 20 19 19 19 19 18 18 17 17 17 17 18 17 16 17
6 6 7 7 6 5 4 3 4 1 4 7 9 9 7 6 3 4 3 4 7 7 8 9 7 6 8 9 9 10 9 10 10 10 13 19 23 25 26 27 28 27 27 29 29 29 29 29 29 29 29 30 32 33 33 32 32 33 34 37 40 41 40 39 38 37 35 34 34 32 31 29 27 26 25 23 22 21 20 20 19 19 19 19 19 18 17 17 17 16 16 16 16 16 16 15 15
6 5 5 4 4 4 4 4 3 1 6 6 7 8 8 7 6 4 5 6 5 6 7 8 8 7 8 8 8 9 9 9 9 9 11 15 18 21 24 26 27 26 27 29 30 30 30 30 30 31 31 32 33 33 33 32 33 34 36 39 42 42 42 41 40 39 37 36 35 33 32 30 28 26 25 23 22 21 20 19 19 19 19 18 18 17 17 16 16 15 15 15 15 15 14 13 13
5 5 6 3 2 3 2 3 0 4 7 4 2 1 4 9 9 7 9 11 10 9 8 8 8 8 7 8 8 8 7 9 10 9 10 11 14 19 23 26 27 28 28 30 31 31 31 31 32 33 33 34 34 33 33 33 34 36 39 41 42 42 41 41 41 40 39 37 36 35 33 31 29 27 25 24 22 21 19 19 19 18 18 17 17 16 16 15 14 14 13 14 14 13 12 11 11
5 6 6 5 3 0 3 4 2 4 5 4 2 1 3 6 6 11 15 16 13 10 9 8 8 8 8 8 8 8 8 9 10 10 10 10 15 21 24 26 28 29 30 31 31 32 32 32 33 34 36 35 34 33 33 34 36 37 40 41 41 42 41 40 40 40 38 37 35 34 32 31 29 28 26 24 23 21 19 19 18 18 17 16 16 15 15 15 13 12 12 12 12 12 10 9 9
5 5 6 6 6 4 4 4 3 4 3 4 2 2 4 3 4 8 11 10 9 8 8 7 7 7 5 4 7 8 9 9 9 10 11 12 18 23 25 27 29 30 31 31 32 33 33 34 35 36 37 37 34 33 34 36 37 39 40 41 41 41 41 40 39 38 37 36 34 32 31 30 28 27 26 24 22 21 20 19 18 17 17 16 15 14 14 13 12 11 11 10 10 10 8 7 7
2 2 5 4 5 5 3 3 5 3 2 3 2 3 5 5 5 7 6 7 7 7 8 7 7 4 2 4 7 8 9 9 9 10 10 12 19 24 25 27 29 30 31 32 33 35 35 36 36 37 38 38 36 35 35 36 38 40 40 41 41 41 41 40 39 38 36 34 32 31 30 29 27 26 25 24 22 21 19 19 18 17 16 15 14 13 13 12 10 9 9 8 8 8 6 6 7
2 3 4 4 4 5 2 3 1 2 3 4 3 5 5 3 7 9 7 9 8 7 9 8 7 3 3 6 7 8 9 10 10 10 10 12 18 23 25 28 30 31 33 33 35 37 37 38 37 37 37 38 37 36 36 37 39 41 41 41 41 41 41 40 39 38 35 34 32 31 30 29 27 26 25 24 23 21 19 18 18 17 16 15 14 13 11 11 9 7 7 6 6 6 6 6 6
5 3 6 2 2 2 2 2 3 3 4 4 3 7 6 2 6 4 1 7 10 10 11 8 6 4 7 8 7 8 9 9 9 9 10 13 19 23 26 28 31 33 34 35 36 37 37 38 39 38 39 39 39 38 38 38 40 42 42 42 42 41 41 39 38 37 36 35 33 31 30 29 27 26 25 24 23 21 20 18 17 17 16 15 14 13 11 10 8 7 6 5 5 6 6 6 6
5 4 4 4 2 2 2 2 2 1 4 5 3 6 5 5 5 2 3 9 11 13 12 8 8 9 10 8 7 8 7 8 9 9 9 11 17 22 25 27 29 31 32 34 35 36 37 39 39 39 39 40 40 39 40 40 41 42 43 43 42 41 40 39 38 37 36 35 34 32 31 29 28 27 26 25 24 22 21 19 18 17 16 16 14 13 11 9 8 6 6 5 6 7 6 6 7
3 1 2 2 2 3 3 3 3 3 3 4 3 3 4 6 7 7 9 11 12 13 11 9 12 13 10 8 8 8 9 9 10 10 9 10 16 22 25 27 29 30 32 32 34 36 38 39 39 39 39 39 39 40 40 41 41 43 43 43 42 41 41 40 39 38 37 35 34 33 31 30 29 28 26 25 24 23 21 20 18 17 17 16 15 13 11 10 8 7 6 6 7 7 7 7 7
4 4 4 3 1 2 1 1 2 4 3 3 4 6 5 4 5 9 11 11 12 11 10 10 12 12 10 9 8 9 10 10 10 10 9 10 16 21 24 27 29 31 32 33 35 37 38 39 39 39 39 40 40 40 41 41 42 43 44 44 43 42 41 40 40 39 37 36 34 33 32 31 29 28 27 26 24 23 21 20 19 18 17 16 15 13 11 10 9 8 8 8 8 8 8 8 8
7 7 9 9 6 4 2 3 2 2 3 4 3 8 8 4 4 7 8 9 10 10 10 11 11 11 10 8 9 10 10 10 10 10 9 10 16 21 24 27 29 30 32 33 34 35 37 38 39 39 39 41 42 42 42 42 43 44 45 45 44 43 42 41 41 39 38 37 35 34 33 32 30 29 28 26 25 23 21 20 19 18 17 16 14 12 11 10 9 9 9 9 10 10 10 10 10
Wind_Direction
353 10 17 332 323 26 54 67 70 348 70 86 29 83 40 232 153 92 40 352 62 345 343 45 45 77 101 114 133 125 83 134 182 136 172 194 118 104 212 216 200 179 170 166 161 159 157 152 148 142 137 130 125 119 112 108 104 101 98 97 97 98 97 94 92 91 94 96 96 96 92 88 85 82 79 75 72 68 68 71 72 73 64 49 41 36 33 32 32 36 38 41 48 61 68 66 83
360 16 13 341 356 60 220 66 92 355 53 76 336 120 180 338 58 126 175 151 157 180 94 87 78 77 97 120 128 96 47 351 212 169 151 135 120 101 132 159 159 162 169 169 164 162 160 155 153 148 140 135 131 127 121 116 112 107 105 104 102 104 104 100 98 96 97 95 95 97 98 96 92 88 83 78 76 71 70 70 68 67 58 44 39 35 33 33 33 38 43 45 51 64 69 69 84
359 6 17 57 46 54 69 46 95 78 71 98 305 262 64 76 128 193 202 172 206 185 128 109 86 67 86 92 50 59 42 334 17 13 111 125 136 113 123 162 165 160 168 171 170 166 163 158 158 153 146 141 137 136 130 125 120 114 112 110 110 109 108 106 104 101 96 91 91 91 92 96 96 91 86 81 79 76 73 72 69 63 53 43 39 36 34 35 37 42 47 49 56 68 74 75 83
-0 1 11 64 66 33 59 48 116 116 106 143 171 272 257 149 173 212 219 210 224 150 135 93 61 343 72 90 41 62 66 314 354 344 180 118 141 129 125 169 178 168 167 174 175 170 167 165 163 158 153 147 143 143 136 132 127 121 118 116 117 112 111 111 108 105 98 93 91 89 88 89 93 93 90 84 81 80 77 76 71 61 52 45 40 38 37 37 39 45 51 53 58 67 75 79 83
9 19 15 53 84 47 84 72 94 99 151 174 137 253 237 181 187 210 228 262 292 94 124 92 71 319 60 85 61 94 296 297 331 31 110 117 140 139 131 167 179 172 168 174 175 172 172 169 166 165 161 154 151 150 143 139 134 128 125 122 121 116 114 113 112 110 106 102 96 93 89 87 90 94 94 88 84 81 81 78 71 61 54 47 42 42 41 40 42 49 55 55 58 64 72 79 80
23 66 39 52 88 103 83 74 84 81 194 166 137 221 222 195 189 187 214 324 4 70 109 86 118 123 62 25 55 82 296 285 316 19 106 124 143 141 142 164 173 171 167 171 173 170 173 173 169 169 167 163 160 155 149 148 143 135 131 127 126 121 118 117 117 115 112 110 104 99 93 89 91 94 97 95 91 85 82 78 67 62 57 50 47 46 45 44 45 52 59 59 61 63 69 74 75
14 54 30 56 41 44 87 104 121 126 188 162 155 181 203 211 189 146 124 92 39 26 59 99 133 111 74 338 71 17 15 52 0 44 119 110 148 151 147 160 166 166 164 168 169 167 173 177 174 172 171 168 168 162 157 155 151 144 138 133 132 128 124 123 122 123 121 119 114 108 101 96 95 98 101 98 95 90 84 76 68 64 59 53 51 50 49 49 48 55 62 64 65 67 71 78 81
22 46 19 80 36 31 94 107 134 172 134 160 169 176 193 201 179 132 132 138 100 20 51 165 147 91 16 55 115 332 41 67 69 93 124 99 142 154 151 158 164 165 164 167 167 166 169 175 178 176 173 171 172 168 163 160 157 152 145 138 136 135 132 129 130 133 130 127 122 118 112 104 101 104 106 103 99 95 86 78 72 65 60 55 53 53 52 53 52 57 65 67 70 72 78 87 90
47 52 44 79 73 45 64 75 95 186 158 154 165 192 200 190 164 129 135 110 127 87 36 226 173 98 132 58 100 274 36 67 90 111 119 104 125 144 152 157 164 168 167 168 168 167 167 174 180 176 176 174 173 171 168 166 163 157 148 144 142 140 140 138 138 142 140 135 129 126 122 115 110 108 111 109 105 100 91 84 77 68 63 58 55 55 55 56 56 59 65 69 72 75 82 91 94
47 36 92 78 77 63 48 96 120 185 189 190 180 193 194 177 141 120 128 114 119 91 19 263 89 104 132 90 164 267 29 75 115 128 117 111 119 135 148 150 163 170 168 168 169 171 169 174 178 178 181 178 177 172 172 173 167 161 154 149 146 144 146 148 147 149 150 145 139 133 128 124 122 117 117 115 112 108 98 91 84 73 66 61 57 57 57 59 58 60 65 69 72 76 85 93 96
39 357 95 78 72 106 161 170 231 215 254 269 234 235 198 159 116 104 109 108 77 89 96 39 84 118 100 68 245 226 123 115 125 136 120 117 126 135 144 143 153 161 161 162 164 168 171 176 180 182 183 183 182 175 174 175 169 165 161 155 150 147 149 153 153 155 156 153 148 142 136 131 126 122 121 121 118 113 105 98 90 80 69 63 61 61 60 60 59 60 64 68 70 74 82 91 95
79 336 65 84 108 161 182 153 181 195 300 296 180 274 192 110 98 125 119 117 84 83 53 0 140 145 84 329 254 224 180 129 125 138 131 133 138 136 140 143 147 151 152 154 157 162 172 182 185 183 182 185 183 179 178 178 176 173 167 161 154 150 151 155 157 160 163 162 158 149 144 135 125 119 121 127 125 119 114 108 98 85 72 65 65 66 65 62 60 60 63 67 69 71 76 82 89
114 157 83 87 137 135 140 136 177 132 330 229 188 256 116 80 115 166 137 99 65 96 31 320 149 120 93 230 264 257 228 143 131 137 153 150 150 142 141 145 146 150 151 154 155 155 166 175 182 184 182 186 186 181 181 183 185 180 172 165 158 156 154 154 157 164 168 170 169 159 150 139 132 123 122 130 132 132 128 120 109 93 78 70 71 73 70 67 63 61 63 66 68 70 73 76 80
131 157 103 107 81 115 137 126 177 137 218 245 230 279 61 75 159 169 128 81 26 113 143 333 126 108 111 178 282 255 221 157 141 148 154 134 154 151 147 147 147 151 152 158 157 154 160 164 173 182 181 183 185 181 184 187 186 181 175 169 164 162 158 155 156 164 170 171 171 167 158 148 142 129 125 132 138 143 140 132 120 105 89 78 79 81 77 72 68 66 65 66 68 69 71 73 75
131 132 87 106 60 96 154 140 162 152 204 237 227 154 72 75 143 122 124 119 61 340 201 20 73 129 170 161 213 217 171 158 151 159 146 132 147 148 150 151 150 151 151 159 159 162 165 161 166 175 179 175 177 181 184 188 186 182 178 175 172 167 163 159 155 160 167 169 170 169 165 160 152 140 134 135 142 148 148 141 130 117 99 88 89 88 83 78 74 71 69 69 71 72 72 73 74
113 104 67 87 86 125 169 154 130 139 215 223 230 139 90 21 137 109 217 138 119 354 15 19 1 339 153 155 185 154 146 157 158 161 145 134 137 137 144 147 150 152 153 159 159 166 171 170 170 171 177 177 181 181 179 186 186 179 179 184 179 172 166 163 158 156 161 166 173 176 174 170 160 153 149 145 149 156 156 147 137 125 106 97 98 94 89 85 78 72 69 70 71 73 75 76 76
63 77 65 66 106 154 178 173 162 171 213 222 252 174 114 202 332 121 353 66 96 29 37 4 344 36 102 125 131 128 147 162 162 162 146 135 131 128 130 136 147 151 154 164 164 168 173 179 179 175 176 181 190 184 175 179 181 175 180 189 182 174 173 172 170 165 164 165 172 180 181 177 168 162 159 156 158 164 162 151 144 131 110 103 105 100 94 87 80 71 67 67 69 69 71 72 72
55 80 84 88 163 178 180 184 198 178 164 191 218 174 131 151 204 134 41 41 79 67 38 9 11 35 73 111 117 123 149 160 164 160 148 141 135 127 122 127 140 150 160 170 175 177 179 184 185 185 183 185 194 190 177 174 179 181 185 190 180 175 180 183 184 180 176 171 175 180 180 180 167 158 162 164 163 166 166 156 148 137 115 106 106 101 93 87 81 74 67 65 65 64 64 64 64
83 107 87 169 200 201 203 188 204 193 159 166 188 171 148 163 166 131 103 354 122 89 31 6 32 45 81 108 118 128 141 150 162 159 149 146 144 136 126 130 141 154 172 179 183 185 188 190 191 192 188 185 189 188 184 178 180 186 191 195 184 179 182 187 192 193 188 181 187 186 182 179 162 154 161 162 163 166 167 160 148 138 120 110 109 104 96 88 83 78 70 64 65 64 61 61 59
119 106 84 228 210 193 256 189 191 200 151 140 154 171 150 174 168 135 154 171 189 157 172 164 180 187 154 131 123 128 131 136 151 153 146 141 142 143 139 142 149 161 183 193 193 192 194 194 194 196 191 185 181 179 184 181 182 189 196 199 191 188 186 189 195 198 196 192 200 201 191 177 167 172 173 166 166 168 168 159 146 142 130 119 119 117 109 94 85 82 73 64 65 66 64 64 60
93 97 145 211 174 131 266 233 154 112 128 138 135 118 136 199 176 136 138 134 254 240 207 191 190 183 172 164 137 131 130 128 138 144 141 137 137 142 144 148 157 172 194 207 207 204 202 198 195 196 192 186 179 177 181 179 180 187 194 195 192 192 193 194 198 200 197 195 200 205 194 173 167 176 180 176 168 164 168 163 149 146 138 128 131 131 128 117 101 91 78 69 67 66 67 66 62
71 19 185 189 138 130 241 245 184 111 104 103 113 131 156 189 130 147 148 158 226 236 216 198 178 168 163 159 147 136 133 131 136 141 141 140 139 141 145 152 166 187 209 218 218 212 205 201 199 196 191 185 178 180 184 179 177 185 188 186 189 192 197 196 196 198 192 193 198 194 188 171 158 156 166 176 170 171 176 167 151 147 146 141 143 143 143 143 137 115 89 78 73 65 64 63 59
100 323 305 214 163 150 199 223 217 119 107 119 154 170 136 109 240 182 168 195 236 252 199 165 151 152 149 144 143 138 139 142 142 145 147 146 144 146 151 158 174 199 214 212 202 196 195 197 201 198 190 182 180 182 186 181 179 189 188 187 188 184 188 186 185 192 187 194 200 191 187 178 167 159 160 167 170 181 177 162 153 159 161 155 159 167 157 146 148 133 108 96 81 64 61 62 60
92 153 298 316 138 147 173 175 152 120 131 181 163 117 148 165 187 199 189 220 251 344 102 122 132 138 139 137 141 147 150 148 144 146 150 151 149 148 152 159 173 191 192 176 169 180 185 187 196 197 185 179 180 180 182 180 180 188 184 184 180 170 175 173 170 179 179 188 194 188 190 182 170 163 161 162 164 173 172 163 166 176 178 174 183 181 153 142 148 136 122 111 84 63 60 67 68
71 151 250 354 21 208 193 158 148 145 149 157 112 139 223 198 163 233 218 199 167 136 101 110 124 129 137 142 146 152 154 149 143 144 146 151 153 150 150 155 158 147 138 143 155 167 169 176 186 184 178 176 177 172 172 170 173 179 173 172 170 167 178 168 157 160 161 170 172 174 183 177 167 164 163 162 164 168 171 172 174 178 177 175 178 161 145 143 145 136 132 120 96 82 72 81 79
188 153 211 0 317 286 192 182 190 185 176 142 140 229 263 256 207 272 217 175 167 134 108 115 126 131 146 149 157 158 159 156 150 150 150 153 160 159 154 153 150 140 137 137 147 155 153 160 169 170 172 173 169 164 163 161 163 168 162 160 160 161 166 159 156 152 148 154 157 160 169 166 163 164 162 161 166 166 164 168 165 163 159 159 158 143 140 144 139 134 135 126 119 114 95 94 84
180 141 185 196 300 302 178 211 232 208 229 180 181 238 279 313 260 251 227 172 162 130 127 144 138 150 162 156 166 163 165 166 159 155 153 159 167 164 158 156 153 145 150 147 142 146 149 154 154 159 165 167 165 160 160 158 157 161 157 154 155 152 152 154 160 157 150 151 154 160 166 164 162 161 161 161 164 159 157 158 155 156 155 149 148 141 139 144 142 144 145 138 140 129 109 100 88
142 128 273 301 334 312 221 222 238 180 239 184 161 229 296 351 240 232 211 167 161 145 153 169 156 167 167 163 171 165 169 169 165 162 162 169 170 165 160 160 157 151 156 152 144 144 146 149 147 151 157 162 163 158 157 156 151 153 153 151 153 152 151 153 157 158 158 154 155 161 162 162 161 160 160 159 158 154 151 150 147 150 150 143 143 145 146 151 156 159 159 157 152 137 121 103 88
123 85 335 308 357 336 255 237 207 163 192 181 136 332 298 240 224 250 190 157 150 151 165 181 178 180 170 169 171 171 171 168 173 178 177 175 169 166 163 161 160 156 157 151 149 150 147 149 148 149 153 158 161 157 156 156 149 147 147 144 146 148 150 153 156 157 156 151 152 155 155 157 158 157 156 155 156 154 149 148 146 144 143 142 144 148 148 147 150 148 147 149 143 134 124 105 84
131 61 68 308 3 334 279 316 153 155 177 175 135 298 274 245 244 260 169 155 142 159 185 191 190 189 183 179 173 184 180 175 184 187 182 176 169 169 164 159 161 159 155 153 156 156 151 153 153 152 152 155 160 156 155 157 151 147 147 144 143 147 153 159 157 154 152 151 154 154 154 156 156 156 155 156 158 156 153 149 145 140 139 142 142 145 145 139 138 136 134 139 136 129 120 112 107
68 23 36 353 9 283 293 341 147 155 200 150 120 236 265 270 268 232 181 167 158 177 198 193 196 197 191 191 182 192 195 190 191 185 183 180 172 171 166 161 163 162 157 158 162 158 154 156 158 158 156 157 160 158 156 158 153 146 148 149 147 150 157 159 154 152 153 155 157 156 156 158 158 158 159 161 159 155 152 145 138 134 134 137 133 132 134 130 131 127 123 129 127 121 116 112 110
41 34 318 339 163 266 306 296 162 158 221 98 120 221 270 278 275 209 175 176 174 187 203 198 201 200 193 198 190 192 207 202 192 184 185 186 178 173 172 166 163 166 164 163 165 162 160 159 161 162 161 159 159 159 159 158 154 149 149 149 148 151 154 154 152 153 154 154 157 154 154 157 156 157 157 158 154 148 144 137 131 130 131 130 124 121 120 116 119 118 112 116 119 116 116 113 109
355 110 246 264 182 273 320 312 206 161 128 123 185 235 271 284 295 217 177 183 187 198 213 208 206 203 197 197 193 190 198 202 196 187 186 189 185 177 176 171 164 169 172 167 168 167 163 159 162 163 161 160 158 158 158 154 152 151 149 148 148 149 152 152 150 151 151 152 153 150 150 152 150 150 151 152 149 142 138 133 130 130 131 128 123 118 112 106 108 108 104 103 107 112 115 114 111
318 355 230 245 204 223 300 300 290 128 140 212 228 244 254 266 293 239 206 191 191 212 220 214 210 206 203 197 196 197 191 198 200 188 184 188 187 178 175 173 167 170 175 172 172 172 167 161 162 163 160 159 158 157 156 154 154 152 147 147 149 149 150 149 149 150 149 150 148 146 146 146 145 145 145 146 144 139 136 133 131 132 131 128 122 115 108 104 101 100 98 94 97 107 113 114 113
199 199 207 256 243 219 251 275 236 154 171 215 204 243 258 266 270 231 220 200 199 222 225 218 215 208 208 203 201 203 198 203 200 186 183 186 185 177 173 173 170 172 177 176 175 173 171 168 165 164 162 159 157 156 157 156 154 152 148 145 146 147 145 145 147 147 146 146 144 143 144 143 142 142 141 141 139 136 134 133 131 130 128 124 118 112 107 103 99 95 92 92 95 102 110 115 116
170 179 160 185 232 252 236 256 242 179 169 225 209 225 248 257 261 240 220 204 211 233 237 229 221 212 210 208 207 205 206 208 194 183 182 185 183 175 172 174 174 175 177 175 173 171 170 170 167 163 163 162 158 155 154 153 148 145 144 143 142 141 141 142 144 143 142 142 141 141 142 140 139 138 138 138 136 135 133 132 130 127 125 123 117 112 107 103 100 96 93 95 100 106 112 117 119
141 142 150 197 215 268 258 261 271 181 158 243 223 228 248 252 259 255 215 191 221 238 240 235 223 216 212 209 211 207 206 198 180 181 184 186 183 176 173 175 174 173 173 174 173 170 169 172 169 162 161 162 159 154 150 150 148 145 143 142 141 139 140 141 140 139 139 138 138 139 137 135 136 136 135 136 136 135 134 132 131 128 125 121 114 109 105 103 102 101 100 99 103 110 114 119 122
173 174 241 263 219 252 259 243 284 188 170 262 246 238 257 254 258 263 199 177 222 227 226 232 224 219 215 210 213 206 190 166 171 182 183 184 183 178 176 176 175 171 170 175 175 170 169 172 170 163 160 160 158 156 152 150 151 152 151 146 142 140 140 140 139 138 137 137 137 136 134 134 135 134 135 137 136 134 134 133 130 126 121 117 111 107 105 103 100 101 103 100 99 102 106 119 130
246 226 250 272 242 268 280 270 306 50 177 263 279 256 260 258 258 261 227 205 228 223 218 227 223 218 215 209 210 196 176 173 178 184 182 183 183 179 180 178 178 175 170 175 176 171 169 169 167 162 160 160 158 157 155 152 152 155 154 148 145 142 138 138 137 136 137 137 135 134 133 134 134 133 133 133 131 130 130 128 124 120 116 114 112 108 104 101 97 95 96 99 99 97 93 98 120
237 220 221 253 247 247 277 289 314 294 223 263 287 287 268 263 263 258 239 223 237 235 225 232 226 220 218 209 205 193 185 184 181 183 181 182 183 183 184 182 181 178 173 175 174 173 171 168 167 164 163 164 162 161 159 157 154 152 150 146 145 143 138 137 136 135 138 137 135 134 133 133 133 131 129 128 127 125 124 123 120 118 116 114 113 108 103 99 96 94 93 96 99 99 93 82 81
245 217 208 228 234 217 230 280 325 335 335 334 324 306 276 252 246 251 254 244 252 245 230 238 235 227 223 213 209 200 191 184 179 181 181 183 185 186 187 186 183 180 178 177 175 175 174 172 171 170 170 169 168 166 164 162 157 150 144 140 140 138 136 137 137 135 138 137 135 134 132 133 132 129 128 126 125 124 123 122 121 119 116 114 110 106 103 100 97 95 93 92 92 96 100 93 83
264 228 209 215 216 216 230 344 21 2 329 329 13 303 279 263 241 251 281 314 262 245 224 237 237 227 220 213 208 197 190 187 182 181 181 182 184 185 187 188 185 182 181 178 177 177 176 176 176 173 174 174 172 170 169 169 162 154 149 145 141 138 135 138 140 139 139 138 136 134 133 133 132 130 128 127 126 125 124 122 120 118 115 112 108 104 102 101 99 96 93 92 92 95 100 100 96
259 240 203 201 192 195 223 167 75 261 262 295 67 195 268 284 243 242 256 260 260 252 239 245 242 228 219 215 206 189 185 185 184 183 181 181 182 183 189 191 187 184 182 179 178 179 177 178 178 176 176 177 175 171 169 168 164 161 160 156 150 146 142 140 141 141 140 138 136 135 134 134 133 132 130 128 128 125 122 120 118 115 113 109 107 104 104 103 101 100 98 95 96 95 95 101 104
240 241 162 161 172 191 211 179 179 225 254 311 355 138 265 278 254 239 229 240 263 265 257 256 247 233 224 218 205 191 189 184 181 184 182 184 185 185 188 190 188 184 182 181 181 181 180 179 180 180 179 179 177 172 169 169 166 164 162 157 153 151 147 142 141 141 140 139 137 137 136 136 135 133 131 129 126 123 120 119 116 114 112 110 109 107 106 106 105 105 103 100 101 99 95 101 109
242 203 128 130 154 163 147 138 178 285 24 294 287 128 253 269 266 284 219 232 261 265 257 256 249 237 225 218 207 195 192 186 183 185 184 186 187 187 188 188 187 185 183 184 183 182 182 181 181 181 181 179 177 173 171 170 169 167 164 159 152 148 146 144 142 141 140 141 140 139 139 138 136 134 132 128 125 123 120 118 118 116 114 113 111 109 109 110 108 107 106 103 103 102 99 100 105
211 134 96 70 76 78 75 107 124 42 27 245 244 189 238 268 244 209 28 240 251 258 257 257 252 238 220 213 208 195 187 186 187 187 186 187 187 187 187 185 185 184 184 185 184 183 183 181 181 181 181 179 177 175 173 172 171 170 168 162 154 148 146 144 143 142 143 144 142 142 142 140 138 136 133 130 127 125 123 122 121 118 117 115 114 114 114 113 110 108 106 103 101 100 101 99 100
136 100 66 44 32 37 41 62 88 46 269 240 225 200 209 270 262 195 213 226 230 242 261 272 271 245 221 212 203 192 185 183 185 184 184 185 185 184 183 183 183 183 183 185 184 183 183 182 182 182 182 180 178 177 176 175 174 173 170 165 158 152 149 148 147 146 147 148 146 145 145 143 141 138 135 133 131 129 128 126 124 121 120 119 119 118 117 114 112 109 106 104 101 97 98 95 96
108 89 82 65 350 10 18 -0 48 230 253 241 234 210 195 237 258 229 244 260 247 229 243 265 270 253 227 215 202 191 186 180 177 177 178 176 177 179 181 182 182 180 181 183 184 184 183 183 183 182 182 181 180 179 179 177 175 174 170 166 161 157 155 154 153 152 152 153 151 150 148 146 144 141 140 138 136 136 133 131 129 127 125 124 123 121 119 116 112 111 108 105 101 97 96 94 97
97 103 108 112 305 352 345 303 201 232 254 265 276 202 200 239 250 251 262 269 258 237 232 243 251 250 233 214 201 186 177 176 177 178 177 175 175 177 180 181 180 180 181 182 183 184 184 184 184 183 181 180 180 180 180 179 176 173 169 166 163 160 159 159 158 157 157 157 155 153 152 150 148 146 146 144 141 141 139 136 134 132 130 128 127 124 121 118 115 114 110 105 101 100 100 100 101
150 144 140 152 172 171 264 259 265 259 264 295 333 156 239 273 260 236 239 247 251 250 248 238 231 241 240 217 194 180 176 179 180 180 179 181 180 179 180 181 181 181 182 182 183 183 183 183 183 183 180 178 179 180 180 179 176 173 170 167 166 164 163 163 163 162 161 161 158 156 154 153 151 150 149 147 146 146 144 141 139 137 134 132 129 127 124 122 120 116 111 106 104 103 107 108 108
181 156 142 160 161 171 217 212 220 251 277 304 303 184 204 225 247 232 231 251 266 267 271 264 248 244 239 200 176 175 182 182 182 184 185 185 182 180 181 183 183 182 182 182 182 182 182 182 182 181 178 177 179 180 180 179 176 173 171 170 169 168 167 167 166 166 164 163 160 158 157 155 154 152 151 150 150 150 148 145 144 141 138 136 133 130 127 126 124 118 113 109 107 109 115 119 119
235 121 119 179 183 175 216 203 180 195 295 287 235 229 222 213 261 263 251 278 286 280 285 283 275 269 169 172 183 184 186 184 184 186 187 185 182 182 182 183 184 184 182 182 182 182 182 181 181 181 178 179 181 180 181 181 178 175 173 173 172 171 171 170 169 168 166 164 162 160 159 158 156 155 154 154 154 154 152 150 149 147 143 142 139 135 132 130 127 121 114 110 114 122 131 133 133
165 132 171 207 180 155 200 272 47 75 272 260 201 248 285 305 279 264 242 256 272 283 279 268 273 282 202 206 201 192 192 187 188 188 185 183 182 184 185 184 185 184 183 184 184 184 184 182 182 182 181 182 183 182 182 183 182 178 176 175 175 174 174 173 172 170 168 166 164 163 161 160 160 159 158 157 157 158 158 156 154 152 150 148 144 141 139 133 129 125 118 119 133 142 149 152 148
130 181 204 171 67 102 125 252 349 33 258 266 217 239 267 273 273 299 192 232 255 264 260 260 275 256 228 225 206 199 197 186 189 188 183 185 183 185 187 186 187 187 185 186 186 187 186 185 185 185 185 183 184 185 184 185 185 182 179 178 178 178 177 176 174 172 170 168 167 166 165 164 164 163 162 161 161 162 162 163 161 158 156 154 151 147 145 140 135 132 132 144 161 164 166 168 163
130 184 188 118 130 203 117 166 227 196 252 284 258 239 244 212 231 298 177 209 232 245 246 252 257 237 230 229 207 200 195 182 189 189 184 188 187 187 186 186 188 188 188 188 187 187 187 188 189 189 189 187 186 186 186 187 188 186 183 181 181 180 179 178 177 174 173 171 170 169 169 168 167 167 166 165 166 166 167 168 167 165 162 159 158 155 151 148 141 142 156 173 183 182 181 181 179
62 119 151 101 142 176 161 167 167 157 231 284 285 249 235 212 206 202 206 208 213 229 235 238 243 237 230 221 202 196 193 192 194 191 189 188 187 189 187 186 188 188 190 190 189 188 188 189 191 191 191 189 187 188 188 187 188 187 186 184 183 183 181 181 179 177 176 174 173 172 172 172 171 170 170 169 170 171 171 172 172 172 169 166 165 160 155 153 151 156 173 188 198 195 193 198 198
163 162 169 180 134 111 166 197 132 136 176 240 275 274 253 217 195 194 204 209 208 216 222 228 240 241 230 214 202 198 196 198 197 189 189 186 184 188 188 188 189 189 191 192 191 190 190 190 192 192 191 189 188 189 189 188 188 187 187 186 185 185 184 183 182 181 180 178 177 176 176 176 175 173 174 174 175 175 175 176 177 177 175 173 170 163 158 158 160 171 186 198 207 206 205 210 211
180 185 187 185 170 137 162 246 214 144 190 189 224 276 268 221 192 199 203 207 207 212 217 227 242 242 232 214 201 201 198 197 197 187 184 184 183 185 186 187 189 189 191 193 192 191 191 191 192 192 192 191 189 189 189 189 188 188 189 188 187 186 186 186 185 184 183 181 180 180 179 179 178 177 177 178 178 178 178 180 181 180 180 178 172 165 163 167 172 184 196 204 210 212 213 216 217